EHI
1 1 0 0 0 0 0 0 0 0 0 0 0 0 0 0 0 0 0 0 0 0 0 0 0 0 0 0 0 1 1 1 1 3 3 3 2 1 0 0 0 0 0 0 0 0 0 1 1
1 0 0 0 0 0 0 0 0 0 0 0 0 0 0 0 0 0 0 0 0 0 0 0 0 0 0 0 0 0 0 1 2 3 3 2 1 0 0 0 0 0 0 0 0 0 0 0 1
0 0 0 0 0 0 0 0 0 0 0 0 0 0 0 0 0 0 0 0 0 0 0 0 0 0 0 0 0 0 0 0 1 2 2 1 0 0 0 0 0 0 0 0 0 0 0 0 0
0 0 0 0 0 0 0 0 0 0 0 0 0 0 0 0 0 0 0 0 0 0 0 0 0 0 0 0 0 0 0 0 0 1 1 0 0 0 1 0 0 0 0 0 1 1 0 0 1
0 0 0 0 0 0 0 0 0 0 0 0 0 0 0 0 0 0 0 0 0 0 0 1 1 2 1 1 0 0 0 0 0 0 0 0 0 0 1 0 0 0 0 0 1 1 1 2 3
0 0 0 0 0 0 0 0 0 0 0 0 0 0 0 0 0 0 0 0 0 0 0 1 2 2 2 1 1 1 0 0 0 0 0 0 0 0 1 0 0 0 0 0 1 1 1 2 4
0 0 0 0 0 0 0 0 0 0 0 0 0 0 0 0 0 0 0 0 0 0 0 0 1 1 1 1 2 1 0 0 0 0 0 0 0 0 0 0 0 0 1 0 0 1 1 2 3
0 0 0 0 0 0 0 0 0 0 0 0 0 0 0 0 0 0 0 0 0 0 0 0 0 0 0 0 1 1 0 0 0 0 0 0 0 0 0 0 0 0 0 0 0 1 1 1 2
0 0 0 0 0 0 0 0 0 0 0 0 0 0 0 1 1 1 1 1 1 0 0 0 0 0 0 0 0 0 0 0 0 0 0 0 0 0 0 0 0 0 0 0 0 0 0 1 2
0 0 0 0 0 0 0 0 0 0 0 0 0 0 0 1 1 1 2 2 2 1 0 0 0 0 0 0 0 0 0 0 0 0 0 0 0 0 0 0 0 0 0 0 0 0 0 0 1
0 0 0 0 0 0 0 0 0 0 0 0 0 0 0 0 0 1 2 3 3 1 0 0 0 0 0 0 0 0 0 0 0 0 0 0 0 0 0 0 0 0 0 0 0 0 0 0 0
0 0 0 0 0 0 0 0 0 0 0 0 0 0 0 0 0 0 1 2 2 2 1 1 1 0 0 0 0 0 0 0 0 0 0 0 0 0 0 0 0 0 0 0 0 0 0 0 0
0 0 0 0 0 0 0 0 0 0 0 0 0 0 0 0 0 0 0 1 1 1 2 2 2 1 0 0 0 0 0 0 0 0 0 0 0 0 0 0 0 0 0 0 0 0 0 0 0
0 0 0 0 0 0 0 0 0 1 1 1 0 0 0 0 0 0 0 0 0 1 2 3 2 1 0 0 0 0 0 0 0 0 0 0 0 0 0 0 0 0 0 0 0 0 0 0 0
0 0 0 0 0 0 0 0 1 2 2 1 0 0 0 0 0 0 0 0 1 1 3 3 3 1 1 1 0 0 0 0 0 0 0 0 0 0 0 0 0 0 0 0 0 0 0 0 0
0 0 0 0 0 0 0 0 1 2 3 2 1 0 0 0 0 0 0 1 2 3 4 4 4 3 2 1 0 0 0 0 0 0 0 0 0 0 0 0 0 0 0 0 0 0 0 0 1
0 0 0 0 0 0 0 0 1 2 3 3 1 0 0 0 0 0 0 1 4 5 6 5 4 2 1 1 0 0 0 0 0 0 0 0 0 0 0 0 0 0 0 0 0 0 0 0 1
0 0 0 0 0 0 0 0 1 2 3 3 2 1 0 0 1 1 2 4 5 6 5 4 2 1 1 0 0 0 0 0 0 0 0 0 0 0 0 0 0 0 0 0 0 0 0 0 1
0 0 0 0 0 0 0 0 0 1 1 3 3 2 1 1 2 3 5 7 7 5 3 1 1 2 2 1 0 0 0 0 0 0 0 0 0 0 0 0 0 0 0 0 0 0 0 0 0
0 0 0 0 0 0 0 0 0 0 1 2 3 3 3 2 3 5 8 8 7 4 1 0 1 2 3 1 0 0 0 0 0 0 0 0 0 0 0 0 0 0 0 0 0 0 0 0 0
0 0 0 0 0 0 0 0 0 0 0 1 1 2 3 3 4 7 9 9 6 3 1 0 1 2 3 2 1 0 0 0 0 0 0 0 0 0 0 0 0 0 0 0 0 0 0 0 0
0 0 0 0 0 0 0 0 0 0 0 0 0 1 3 4 5 7 9 8 5 3 2 1 1 2 3 3 1 1 1 0 0 0 0 0 0 0 0 0 0 0 0 0 0 0 0 0 0
0 0 0 0 0 0 0 0 0 0 0 0 0 1 2 4 6 7 8 7 5 3 2 1 1 3 3 3 3 3 2 1 0 0 0 0 0 0 0 0 0 0 0 0 0 0 0 0 0
0 0 0 0 0 0 0 0 0 0 0 0 0 0 2 4 6 6 7 7 6 5 3 2 3 3 3 4 5 4 3 1 0 0 0 0 0 0 0 0 0 0 0 0 0 0 0 0 0
0 0 0 0 0 0 0 0 0 0 0 0 0 0 1 4 6 6 6 8 8 8 6 4 4 4 4 5 5 4 3 2 0 0 0 0 0 0 0 0 0 0 0 0 0 0 0 0 1
0 0 0 0 0 0 0 0 0 0 0 0 1 1 2 4 5 5 5 7 9 10 9 7 6 6 6 6 7 5 3 1 0 0 0 0 0 0 0 0 0 0 0 0 1 1 1 1 2
0 0 0 0 0 0 0 0 0 0 0 0 1 2 3 3 3 2 4 6 9 10 11 10 9 8 8 8 9 7 4 2 1 0 0 0 0 0 0 0 0 0 0 0 1 2 2 3 3
0 0 0 0 0 0 0 0 0 0 0 0 1 2 3 3 1 1 3 5 9 11 12 12 11 10 10 10 10 9 6 4 2 1 0 0 0 1 1 1 1 1 1 1 2 3 3 3 3
0 0 0 0 0 0 0 0 0 0 0 0 0 1 3 2 1 1 2 5 10 12 14 14 13 11 11 11 10 8 7 5 3 2 1 1 1 2 2 2 2 2 2 2 3 3 3 3 3
0 0 0 0 0 0 0 0 0 0 0 0 0 1 2 2 1 0 1 5 9 13 15 16 15 13 12 11 9 7 6 5 4 3 2 2 2 3 3 3 3 3 3 3 3 3 3 3 3
Wind_Speed
7 5 3 1 4 5 3 3 1 2 3 3 4 5 4 3 2 1 1 2 2 1 1 3 6 8 9 10 10 11 11 11 12 12 13 13 13 14 14 13 13 13 12 12 11 11 12 12 12
5 4 1 3 5 4 3 3 3 3 3 4 4 5 5 4 3 3 1 1 2 2 2 3 7 7 9 10 10 10 11 11 12 12 12 13 13 13 13 12 12 12 12 11 11 11 11 11 11
5 3 2 4 4 2 1 1 3 4 4 2 3 4 4 2 2 2 1 2 2 2 2 3 7 7 8 9 9 10 10 11 11 12 12 12 12 13 12 12 11 11 11 10 10 11 11 11 10
2 2 3 5 4 1 2 2 3 4 5 6 4 5 4 3 2 2 3 3 3 2 2 2 7 7 8 8 9 9 9 10 11 11 11 11 12 12 11 11 10 10 10 10 10 10 10 10 9
1 3 6 4 3 2 2 3 3 4 3 5 5 5 3 4 5 6 5 4 3 2 2 2 6 7 8 8 8 8 9 10 10 10 11 10 10 10 10 10 10 9 9 9 8 8 8 8 9
3 4 5 3 3 3 3 3 4 6 5 4 4 4 2 2 5 5 4 3 2 2 2 2 5 7 7 7 8 8 9 9 10 10 10 10 9 9 9 9 9 8 8 8 8 7 6 7 8
3 4 3 2 2 2 2 2 4 4 4 3 3 4 2 1 3 4 4 3 3 3 3 3 3 3 6 7 7 7 8 9 9 10 9 9 9 9 8 8 8 8 7 7 6 6 5 7 7
3 4 3 2 2 1 2 3 3 4 3 3 3 4 2 2 4 5 5 4 4 4 3 3 3 3 3 3 5 6 7 8 8 9 8 8 7 8 7 6 6 6 6 6 5 5 5 6 6
3 5 2 2 4 2 3 4 3 3 5 3 3 3 4 8 8 6 5 4 3 2 3 3 3 3 3 2 3 4 6 7 7 6 6 6 3 3 4 4 5 5 4 4 4 4 4 5 5
4 3 3 3 4 5 5 4 4 4 4 3 5 6 8 9 7 6 4 3 2 0 1 1 1 1 2 1 2 3 3 4 3 3 3 3 3 2 2 2 3 3 3 3 3 4 4 4 3
3 3 2 2 4 6 5 4 3 7 2 3 7 9 9 8 6 5 4 3 3 1 0 1 1 1 1 2 2 2 2 2 3 3 3 2 2 2 2 1 2 2 2 2 3 3 2 2 2
2 1 2 3 4 5 5 4 4 3 3 5 8 10 9 7 6 5 5 3 2 1 1 1 1 1 1 1 2 2 2 2 1 2 2 2 1 1 1 1 1 1 1 1 2 2 2 2 1
2 1 3 4 6 6 6 5 4 2 5 8 9 8 8 7 5 3 3 3 2 2 2 1 2 2 1 1 1 1 1 1 1 1 1 2 2 1 1 0 1 1 1 1 1 1 2 2 2
2 4 4 4 5 3 6 3 4 3 7 8 8 7 6 6 5 4 3 3 3 3 3 2 2 2 2 1 1 1 1 1 1 1 1 2 1 1 1 1 0 0 1 1 1 1 1 1 1
5 6 5 3 2 3 6 3 1 5 8 7 7 6 5 5 4 5 5 4 4 4 3 3 3 3 3 2 1 1 1 1 1 1 1 1 2 2 1 1 0 0 1 1 1 1 1 1 1
5 5 2 2 1 2 5 2 3 6 8 7 6 6 5 4 4 4 4 4 4 4 3 2 3 4 3 2 2 1 2 2 1 1 1 1 1 2 2 1 1 1 1 1 1 1 1 1 1
3 2 1 1 2 3 3 3 4 6 8 7 6 5 5 4 3 3 4 4 4 4 4 3 3 4 3 3 2 2 2 2 1 1 1 1 1 1 2 1 1 1 1 1 1 1 1 1 1
4 3 2 4 3 3 3 3 5 7 8 7 6 5 5 6 6 4 4 4 4 4 4 4 3 3 3 3 3 3 3 2 2 1 1 1 1 1 2 1 1 2 2 1 1 2 2 1 1
5 4 3 4 3 4 4 4 5 8 7 7 7 7 7 7 5 4 4 4 4 4 4 3 3 3 3 2 2 2 1 1 1 1 1 1 1 2 2 1 1 2 2 1 2 2 3 2 2
3 2 1 1 1 3 2 3 4 8 11 11 10 9 8 6 4 5 5 5 5 5 5 4 4 3 3 2 2 2 2 1 0 1 2 1 1 1 2 2 1 1 2 2 2 2 2 1 1
2 4 4 3 2 3 3 3 3 4 6 6 7 7 8 9 9 7 7 6 6 6 6 5 4 4 3 3 3 3 2 2 2 2 1 2 1 1 1 1 1 1 2 1 1 2 2 2 1
3 4 4 4 4 1 2 3 6 5 6 8 9 9 10 9 9 8 8 7 8 7 6 5 5 4 3 4 3 4 3 2 1 0 0 1 1 1 1 1 1 1 1 1 1 2 1 2 1
5 2 4 3 4 2 1 1 8 2 7 11 12 12 11 11 10 10 10 9 8 7 7 5 5 4 4 4 4 4 3 2 1 1 1 1 1 1 1 1 1 1 1 1 2 2 2 1 2
4 6 6 6 5 1 4 4 8 6 10 9 11 12 12 11 11 10 9 7 6 6 6 6 6 4 4 4 4 4 4 3 2 1 1 0 1 1 1 1 1 1 1 1 2 2 2 2 2
5 6 4 4 3 6 2 4 10 9 8 10 10 12 12 11 10 10 10 9 9 8 8 7 7 6 5 5 4 4 4 4 4 3 2 1 0 0 0 1 1 1 1 1 2 2 1 2 2
4 8 8 6 5 5 1 6 9 7 6 6 6 7 9 10 10 11 11 11 10 10 9 8 8 7 6 5 4 4 4 3 2 3 2 2 1 1 1 1 1 1 1 2 2 2 1 2 2
6 3 5 7 2 1 5 7 9 3 1 2 3 5 8 10 11 11 10 11 11 11 10 10 9 7 7 6 5 4 4 4 3 3 2 1 1 1 1 2 2 1 2 2 2 2 1 2 1
5 7 5 6 5 3 5 5 5 5 4 2 4 6 7 8 9 9 10 11 11 10 9 8 8 8 7 6 6 5 4 4 4 3 3 2 2 1 2 2 2 2 2 2 2 2 1 2 1
4 4 5 4 5 6 3 8 7 8 7 6 7 7 8 9 10 9 9 9 9 8 9 8 8 7 7 7 6 5 4 4 4 3 3 3 2 2 2 2 2 2 2 2 2 2 2 2 1
4 6 7 5 3 4 4 9 5 5 5 5 6 5 5 7 8 8 8 8 8 9 9 9 8 8 7 6 6 6 4 4 4 4 3 3 3 2 2 2 2 2 2 2 2 2 2 2 2
Wind_Direction
159 152 147 115 55 49 35 5 22 42 45 50 70 75 81 57 64 112 331 52 67 46 28 97 103 102 105 111 113 114 115 118 119 120 121 121 123 123 124 125 124 123 122 123 124 125 125 124 124
151 156 139 61 71 56 4 354 53 53 115 124 77 68 64 51 48 87 54 48 68 66 65 95 105 104 109 111 113 115 116 117 119 121 120 121 124 124 126 125 124 122 122 124 125 126 127 127 128
164 172 84 64 73 111 98 29 86 82 83 69 69 55 62 55 70 102 146 119 70 58 55 101 108 108 113 112 112 115 117 118 120 121 121 123 125 125 125 123 122 121 121 123 125 127 128 130 133
152 63 55 63 59 45 152 131 110 96 55 45 76 63 54 53 104 123 126 117 89 58 53 96 106 109 116 117 117 119 120 120 121 121 121 124 126 127 125 123 121 121 121 121 122 125 130 134 139
77 73 56 45 32 32 88 118 98 71 64 55 69 76 41 25 82 101 107 105 95 66 49 98 109 112 120 119 120 120 121 120 119 121 121 124 126 126 125 123 123 124 123 119 116 120 129 137 143
54 63 69 55 37 42 79 92 83 78 79 75 74 76 37 63 93 106 105 100 89 83 58 71 108 114 123 123 122 121 122 123 123 123 123 125 128 128 124 123 123 124 122 119 118 118 136 145 147
93 81 94 98 78 65 118 100 91 97 86 80 95 84 52 79 100 103 92 80 65 62 59 43 51 94 121 126 126 126 129 131 130 126 126 128 129 129 127 125 124 122 120 121 122 119 126 146 147
120 95 79 89 118 138 135 102 93 97 93 102 96 116 162 171 112 93 78 68 60 51 47 42 33 38 55 96 126 131 133 136 135 133 131 128 124 124 124 121 121 122 123 122 120 110 103 125 134
94 75 108 182 162 166 142 114 105 78 98 90 83 120 137 125 114 100 84 65 57 55 37 41 38 36 44 60 114 115 126 131 132 133 133 120 94 90 103 118 128 128 127 122 115 108 97 96 106
92 111 201 195 167 151 138 126 130 105 101 85 80 87 108 119 123 125 127 131 134 150 36 54 53 41 43 67 64 57 73 85 89 90 93 91 90 85 91 101 122 124 111 102 95 87 81 71 66
130 160 179 146 141 132 127 119 109 124 146 173 148 136 131 131 135 144 155 162 182 190 152 112 104 68 64 50 64 60 66 73 77 85 86 88 83 77 59 56 51 50 62 59 56 60 62 67 73
122 194 144 134 122 120 131 128 110 139 181 147 141 140 140 146 157 169 173 179 171 159 194 144 124 97 88 79 71 76 80 84 87 89 97 103 97 81 69 63 48 48 54 62 58 60 56 54 58
109 72 74 104 106 111 106 108 121 123 115 116 123 132 146 158 168 175 174 173 163 174 191 166 133 134 126 106 96 103 106 110 109 98 106 126 130 137 127 105 70 66 84 95 82 67 54 45 32
114 86 81 88 97 105 109 101 98 135 126 124 135 149 161 167 168 158 163 181 181 180 184 165 142 141 129 123 124 109 114 112 102 107 124 131 140 147 132 101 77 70 90 116 112 107 87 57 38
91 81 61 57 82 111 103 62 136 154 136 140 154 160 164 174 169 174 184 188 183 176 171 159 146 128 130 136 140 122 121 108 109 105 104 125 145 151 143 134 129 117 107 106 99 93 88 77 57
63 70 74 282 118 125 112 189 194 156 148 160 171 171 173 186 186 185 180 178 172 160 153 155 146 127 129 124 117 107 111 116 114 96 91 108 131 134 135 143 163 129 117 111 115 104 93 77 71
49 117 192 249 197 152 143 203 186 164 161 175 185 185 183 188 196 191 180 172 165 159 148 141 124 130 133 123 107 95 90 86 83 83 88 87 100 123 133 143 146 128 113 104 129 99 114 111 97
197 180 187 203 213 156 178 214 177 174 175 186 190 193 193 197 206 192 176 165 156 147 139 137 127 126 122 105 87 72 66 56 61 70 71 79 94 116 121 122 122 123 110 92 98 103 95 100 105
163 164 199 220 193 160 202 215 193 181 188 195 198 200 204 210 206 180 170 159 149 144 145 149 142 135 122 108 109 100 89 54 43 46 40 57 80 96 107 112 114 118 116 120 117 106 93 78 90
145 155 217 318 137 153 203 247 212 193 201 200 198 202 206 205 188 182 174 166 168 170 170 166 162 154 150 137 130 131 128 117 98 31 37 49 68 82 101 117 129 127 117 98 98 105 108 87 85
178 186 198 186 84 65 90 319 240 223 214 211 208 206 205 203 196 190 185 180 175 180 182 180 174 168 162 145 113 95 77 61 51 35 19 13 44 71 85 113 123 123 131 136 133 130 129 124 92
229 222 181 157 119 270 125 273 272 221 222 219 215 211 208 206 197 191 189 188 186 188 181 175 174 170 162 149 139 136 137 141 171 138 48 10 27 57 81 83 104 117 124 133 152 130 122 126 131
199 145 132 124 118 60 47 190 282 218 230 230 219 214 210 204 198 195 194 193 190 181 173 172 170 169 164 157 155 144 143 152 126 91 69 33 16 16 47 93 105 107 118 131 119 119 124 131 137
130 80 65 55 73 293 225 177 274 226 219 225 218 213 207 202 199 198 193 184 182 174 166 164 170 177 168 162 160 159 160 156 145 136 123 24 2 1 31 91 103 117 129 139 146 134 127 128 124
108 98 50 10 11 253 228 186 250 245 226 218 216 211 203 197 196 193 186 184 180 176 173 169 173 181 175 169 171 173 172 168 173 177 179 173 283 315 322 102 115 125 144 146 135 124 125 138 141
168 142 155 186 214 269 259 231 254 264 247 222 212 201 190 190 195 195 190 188 184 181 177 174 178 183 179 178 181 177 172 168 176 181 177 184 202 225 200 147 140 136 126 123 125 117 132 127 139
138 168 159 133 155 256 273 280 300 317 310 191 177 175 188 192 193 191 186 185 184 182 183 182 179 182 183 183 179 176 175 174 177 178 177 183 202 191 159 141 128 117 113 115 120 118 122 124 129
131 141 105 122 147 233 285 274 255 275 263 231 192 194 199 194 194 190 185 187 186 183 181 179 180 183 182 179 185 186 181 179 178 175 185 189 188 171 150 145 140 132 128 127 122 122 124 122 125
107 95 103 111 146 157 238 268 228 220 220 212 217 210 201 195 195 192 189 186 181 174 175 176 179 179 180 182 183 179 176 175 172 181 194 192 182 176 177 177 168 163 158 150 144 153 143 144 136
143 152 142 147 197 167 181 263 268 222 220 209 216 211 200 197 195 188 182 176 174 175 178 182 183 185 187 183 178 181 176 170 177 194 198 187 187 189 189 182 178 185 179 169 173 186 173 172 176